Santiago, Dominican Republic

12:01 AM AST on March 29, 2017 (GMT -0400)
Cibao International

Weather History for MDST - October, 2013

Change the Weather History Date:

Saturday, October 26, 2013

  Actual Average Record
Temperature  
Mean Temperature 81 °F -  
Max Temperature 91 °F 87 °F 93 °F (1997)
Min Temperature 71 °F 68 °F 65 °F (2015)
Cooling Degree Days 16    
Growing Degree Days 31 (Base 50)    
Moisture  
Dew Point 74 °F    
Average Humidity 81    
Maximum Humidity 100    
Minimum Humidity 55    
Precipitation  
Precipitation 0.00 in 0.16 in - ()
Sea Level Pressure  
Sea Level Pressure 29.94 in    
Wind  
Wind Speed 7 mph ()    
Max Wind Speed 21 mph    
Max Gust Speed -    
Visibility 6.1 miles    
Events Thunderstorm    
Averages and records for this station are not official NWS values.
T = Trace of Precipitation, MM = Missing Value Source: Averaged Metar Reports

Daily Weather History Graph

Daily Weather History Graph

Search for Another Location

Airport or City:

Trip Planner

Search our weather history database for the weather conditions in past years. The results will help you decide how hot, cold, wet, or windy it might be!

Date:

Astronomy

Oct. 26, 2013 Rise Set
Actual Time 6:41 AM AST 6:11 PM AST
Civil Twilight 6:18 AM AST 6:34 PM AST
Nautical Twilight 5:52 AM AST 7:00 PM AST
Astronomical Twilight 5:27 AM AST 7:26 PM AST
Moon No Moon Rise 12:48 PM AST (10/26)
Length of Visible Light 12h 15m
Length of Day
11h 30m
Waning Gibbous, 53% of the Moon is Illuminated
Oct 26
Waning Gibbous
Oct 26
Last Quarter
Nov 3
New
Nov 10
First Quarter
Nov 17
Full

Hourly Weather History & Observations

Time (AST) Temp. Heat Index Dew Point Humidity Pressure Visibility Wind Dir Wind Speed Gust Speed Precip Events Conditions
12:00 AM 75.2 °F - 75.2 °F 100% 29.98 in 6.2 mi Calm Calm - N/A   Partly Cloudy
1:00 AM 75.2 °F - 75.2 °F 100% 29.98 in 6.2 mi Calm Calm - N/A   Partly Cloudy
2:00 AM 75.2 °F - 73.4 °F 94% 29.95 in 6.2 mi East 5.8 mph - N/A   Partly Cloudy
3:00 AM 73.4 °F - 73.4 °F 100% 29.95 in 6.2 mi Calm Calm - N/A   Partly Cloudy
4:00 AM 73.4 °F - 73.4 °F 100% 29.92 in 6.2 mi Variable 3.5 mph - N/A   Scattered Clouds
5:00 AM 74 °F - 73 °F 97% 29.94 in 6 mi ESE 6.7 mph - -   Haze
5:00 AM 73.4 °F - 73.4 °F 100% 29.92 in 6.2 mi ESE 6.9 mph - N/A   Scattered Clouds
6:00 AM 73.4 °F - 73.4 °F 100% 29.92 in 6.2 mi Calm Calm - N/A   Scattered Clouds
7:00 AM 73.4 °F - 73.4 °F 100% 29.95 in 6.2 mi South 4.6 mph - N/A   Mostly Cloudy
8:00 AM 72 °F - 72 °F 98% 29.97 in 5 mi SSE 4.5 mph - -   Haze
8:00 AM 71.6 °F - 71.6 °F 100% 29.95 in 6.2 mi SSE 4.6 mph - N/A   Mostly Cloudy
9:00 AM 78.8 °F - 75.2 °F 89% 29.98 in 6.2 mi ESE 11.5 mph - N/A   Mostly Cloudy
10:00 AM 82.4 °F 88.2 °F 73.4 °F 74% 30.01 in 6.2 mi SE 11.5 mph - N/A   Scattered Clouds
11:00 AM 85 °F - 74 °F 64% 30.00 in 6 mi SE 13.4 mph - -   Haze
11:00 AM 84.2 °F 92.3 °F 75.2 °F 74% 29.98 in 6.2 mi SE 13.8 mph - N/A   Scattered Clouds
12:00 PM 87.8 °F 95.6 °F 73.4 °F 62% 29.98 in 6.2 mi ESE 18.4 mph - N/A   Mostly Cloudy
1:00 PM 87.8 °F 95.6 °F 73.4 °F 62% 29.92 in 6.2 mi SE 17.3 mph - N/A   Mostly Cloudy
2:00 PM 89 °F - 75 °F 55% 29.91 in 6 mi ESE 20.1 mph - -   Haze
2:00 PM 89.6 °F 99.8 °F 75.2 °F 62% 29.89 in 6.2 mi ESE 20.7 mph - N/A   Mostly Cloudy
3:00 PM 89.6 °F 99.8 °F 75.2 °F 62% 29.86 in 6.2 mi ESE 13.8 mph - N/A   Mostly Cloudy
4:00 PM 87.8 °F 95.6 °F 73.4 °F 62% 29.86 in 6.2 mi SE 18.4 mph - N/A   Mostly Cloudy
5:00 PM 87 °F - 73 °F 55% 29.88 in 6 mi ESE 11.2 mph - -   Haze
5:00 PM 87.8 °F 95.6 °F 73.4 °F 62% 29.86 in 6.2 mi ESE 11.5 mph - N/A   Mostly Cloudy
6:00 PM 84.2 °F 92.3 °F 75.2 °F 74% 29.89 in 6.2 mi ESE 11.5 mph - N/A   Mostly Cloudy
7:00 PM 82.4 °F 89.5 °F 75.2 °F 79% 29.89 in 6.2 mi ESE 11.5 mph - N/A   Mostly Cloudy
8:00 PM 81 °F - 73 °F 71% 29.94 in 6 mi ESE 11.2 mph - -   Partly Cloudy
8:00 PM 80.6 °F 85.4 °F 73.4 °F 79% 29.92 in 6.2 mi ESE 11.5 mph - N/A Thunderstorm Thunderstorm
9:00 PM 80.6 °F 85.4 °F 73.4 °F 79% 29.95 in 6.2 mi SE 11.5 mph - N/A   Scattered Clouds
10:00 PM 78.8 °F - 73.4 °F 83% 29.98 in 6.2 mi SE 6.9 mph - N/A Thunderstorm Thunderstorm
11:00 PM 76 °F - 72 °F 84% 30.00 in 6 mi SSE 4.5 mph - -   Haze
11:00 PM 77.0 °F - 71.6 °F 83% 29.98 in 6.2 mi SSE 4.6 mph - N/A   Partly Cloudy